#timestamp,LO_Frequency,Hit 
1502499615.2,286046999.0,N
1502499635.0,286046997.7,N
1502499636.0,286046997.7,N
1502499655.8,286046995.0,N
1502499675.6,286046998.0,N
1502499695.4,286046996.8,N
1502499715.3,286046997.0,N
1502499735.1,286046996.8,N
1502499755.8,286046999.3,N
1502499775.7,286046996.5,N
1502499795.5,286046995.0,N
1502499815.3,286046995.3,N
1502499835.2,286046997.1,N
1502499855.9,286046998.9,N
1502499875.7,286046999.0,N
1502499895.6,286046999.3,N
1502499915.4,286046999.4,N
1502499935.2,286046995.3,N
1502499955.1,286046988.3,P
1502499956.0,286046988.3,N
1502499975.8,286046988.7,N
1502499995.6,286046990.6,N
1502500015.5,286046992.8,N
1502500035.3,286046997.2,N
1502500055.1,286046999.4,N
1502500075.9,286047002.0,N
1502500095.7,286047001.6,N
1502500115.5,286047006.7,N
1502500135.3,286047009.2,N
1502500155.2,286047010.8,N
1502500175.0,286047006.1,N
1502500175.9,286047006.1,N
1502500195.7,286047010.5,N
1502500215.6,286047009.5,N
1502500235.4,286047010.5,N
1502500255.2,286047009.3,N
1502500275.1,286047012.8,N
1502500276.0,286047012.8,N
1502500295.8,286047010.9,N
1502500315.6,286047009.9,N
1502500335.5,286047010.1,N
1502500355.3,286047011.2,N
1502500375.1,286047010.9,N
1502500395.9,286047013.4,N
1502500415.7,286047011.8,N
1502500435.5,286047011.8,N
1502500455.4,286047010.8,N
1502500475.2,286047011.7,N
1502500495.0,286047010.2,N
1502500495.9,286047010.2,N
1502500515.7,286047010.5,N
1502500535.6,286047011.8,N
1502500555.4,286047009.4,N
1502500575.3,286047015.0,P
1502500595.1,286047005.4,N
1502500596.0,286047005.4,N
1502500615.8,286047009.1,N
1502500635.7,286047006.2,N
1502500655.5,286047007.0,N
1502500675.3,286047007.1,N
1502500695.1,286047007.5,N
1502500715.9,286047008.7,P
1502500735.7,286047000.6,N
1502500755.5,286047004.2,N
1502500775.4,286046999.9,N
1502500795.2,286047001.2,N
1502500815.0,286047003.5,N
1502500815.9,286047003.5,N
1502500835.8,286047004.6,N
1502500855.6,286047000.1,N
1502500875.4,286047002.5,N
1502500895.3,286047003.5,N
1502500915.1,286047003.2,N
1502500916.0,286047003.2,N
1502500935.8,286047003.7,N
1502500955.7,286047003.5,N
1502500975.5,286047002.3,N
1502500995.3,286047002.6,N
1502501015.2,286047002.3,N
1502501035.9,286047003.7,N
1502501055.7,286047001.5,N
1502501075.6,286047003.0,N
1502501095.4,286047005.8,N
1502501115.2,286047001.8,N
1502501135.0,286047002.2,N
1502501135.9,286047002.2,N
1502501155.8,286047001.4,N
1502501175.6,286047004.1,N
1502501195.4,286047005.3,N
1502501215.3,286047005.8,N
1502501235.1,286047003.7,N
1502501255.8,286047003.6,N
1502501275.2,286047003.9,N
1502501295.1,286047009.2,P
1502501296.0,286047009.2,N
1502501315.8,286047003.8,N
1502501335.6,286047001.5,N
1502501355.5,286047004.2,N
1502501375.3,286047003.0,N
1502501395.1,286047001.5,N
1502501415.9,286047001.6,N
1502501435.7,286047001.3,N
1502501455.5,286047003.1,N
1502501475.4,286047005.4,N
1502501495.2,286047003.8,N
1502501515.0,286047004.2,N
1502501515.9,286047004.2,N
1502501535.7,286047003.8,N
1502501555.6,286047003.7,N
1502501575.4,286047002.9,N
1502501595.2,286047004.9,N
1502501615.1,286047007.4,P
1502501616.0,286047007.4,P
1502501635.8,286047003.6,N
1502501655.7,286047001.3,N
1502501675.5,286047006.0,N
1502501695.3,286047002.2,N
1502501715.1,286047001.2,N
1502501735.9,286046998.1,N
1502501755.7,286046999.8,N
1502501775.5,286047005.7,N
1502501795.4,286047004.1,N
1502501815.2,286047001.4,N
1502501835.0,286047003.4,N
1502501835.9,286047003.4,N
1502501855.8,286047003.7,N
1502501875.6,286047003.4,N
1502501895.4,286047001.3,N
1502501915.3,286047004.7,N
1502501935.1,286047004.1,N
1502501936.0,286047004.1,N
1502501955.8,286047002.3,N
1502501975.7,286046998.2,N
1502501995.5,286046997.6,N
1502502015.3,286046995.3,N
1502502035.2,286046997.9,N
1502502055.9,286046995.8,N
1502502075.7,286046994.6,N
1502502095.5,286046992.8,N
1502502115.4,286046991.0,N
1502502135.2,286046992.7,N
1502502155.0,286046992.4,N
1502502155.9,286046992.4,N
1502502175.8,286046995.3,N
1502502195.6,286046994.9,N
1502502215.4,286046997.7,N
1502502235.3,286046997.6,N
1502502255.1,286046995.7,N
1502502275.8,286046994.5,N
1502502295.7,286046990.6,N
1502502315.5,286046988.6,N
1502502335.3,286046987.1,N
1502502355.2,286046987.3,N
1502502375.9,286046987.9,N
1502502395.7,286046985.4,N
1502502415.6,286046986.1,N
1502502435.4,286046988.1,N
1502502455.2,286046990.5,N
1502502475.1,286046991.1,N
1502502476.0,286046991.1,N
1502502495.8,286046991.6,N
1502502515.6,286046989.0,N
1502502535.4,286046993.2,N
1502502555.3,286046992.6,N
1502502575.1,286046992.9,N
1502502595.9,286046984.9,P
1502502615.7,286046988.0,P
1502502635.5,286046989.8,P
1502502655.4,286046991.2,P
1502502675.2,286047008.6,P
1502502695.0,286047009.8,N
1502502695.9,286047009.8,N
1502502715.8,286047011.6,N
1502502735.6,286047011.5,N
1502502755.4,286047014.4,N
1502502775.2,286047016.3,N
1502502795.1,286047017.6,N
1502502796.0,286047017.6,N
1502502815.8,286047015.9,N
1502502835.6,286047018.7,N
1502502855.5,286047018.2,N
1502502875.3,286047015.7,N
1502502895.1,286047016.7,N
1502502915.9,286047014.1,N
1502502935.7,286047015.5,N
1502502955.5,286047012.7,N
1502502975.4,286047016.6,N
1502502995.2,286047018.3,N
1502503015.0,286047017.5,N
1502503015.9,286047017.5,N
1502503035.8,286047016.7,N
1502503055.6,286047015.3,N
1502503075.4,286047012.7,N
1502503095.2,286047013.5,N
1502503115.1,286047012.7,N
1502503116.0,286047012.7,N
1502503135.8,286047012.5,N
1502503155.6,286047013.4,N
1502503175.5,286047015.7,P
1502503195.3,286047005.6,P
